When you browse on this site, cookies collect data to enhance your experience and personalize the content and advertising you see.
Visit our Privacy Policy to learn more. By continuing to use the site, you agree to this use of cookies and data.
  • în România
  • Lista ţărilor
  • Pe 7 zile
  • Temperatura apei
  • Hartă satelitară
  • Meteo pe hartă
  • Widget-uri
  • user-avatar
    Intrare

    Meteo pe oră la My Tho

    Astăzi, 17 Ianuarie, Joi

    Timp Temperatura Precipitaţii Vânt Presiune Umiditate
    00:00 +28°C° 0 mm 2 m/s 758 mmHg 69%
    01:00 +27°C° 0 mm 2 m/s 758 mmHg 71%
    02:00 +27°C° 0 mm 2 m/s 757 mmHg 71%
    03:00 +27°C° 0 mm 2 m/s 757 mmHg 72%
    04:00 +27°C° 0 mm 2 m/s 757 mmHg 72%
    05:00 +27°C° 0 mm 2 m/s 757 mmHg 73%
    06:00 +27°C° 0 mm 2 m/s 758 mmHg 73%
    07:00 +27°C° 0 mm 1 m/s 758 mmHg 73%
    08:00 +29°C° 0 mm 3 m/s 758 mmHg 65%
    09:00 +32°C° 0 mm 4 m/s 758 mmHg 57%
    10:00 +33°C° 0 mm 5 m/s 758 mmHg 48%
    11:00 +34°C° 0 mm 5 m/s 758 mmHg 46%
    12:00 +35°C° 0 mm 5 m/s 757 mmHg 43%
    13:00 +36°C° 0 mm 5 m/s 757 mmHg 43%
    14:00 +35°C° 0 mm 5 m/s 757 mmHg 45%
    15:00 +34°C° 0 mm 5 m/s 756 mmHg 47%
    16:00 +34°C° 0 mm 5 m/s 756 mmHg 50%
    17:00 +32°C° 0 mm 4 m/s 756 mmHg 55%
    18:00 +30°C° 0 mm 4 m/s 757 mmHg 60%
    19:00 +28°C° 0 mm 4 m/s 757 mmHg 66%
    20:00 +28°C° 0 mm 4 m/s 757 mmHg 65%
    21:00 +28°C° 0 mm 4 m/s 757 mmHg 64%
    22:00 +28°C° 0 mm 3 m/s 758 mmHg 64%
    23:00 +28°C° 0 mm 3 m/s 758 mmHg 61%

    Mâine, 18 Ianuarie, Vineri

    Timp Temperatura Precipitaţii Vânt Presiune Umiditate
    00:00 +28°C° 0 mm 3 m/s 758 mmHg 59%
    01:00 +28°C° 0 mm 4 m/s 758 mmHg 57%
    02:00 +28°C° 0 mm 3 m/s 758 mmHg 60%
    03:00 +27°C° 0 mm 3 m/s 758 mmHg 63%
    04:00 +27°C° 0 mm 2 m/s 757 mmHg 65%
    05:00 +26°C° 0 mm 2 m/s 758 mmHg 67%
    06:00 +26°C° 0 mm 2 m/s 758 mmHg 68%
    07:00 +26°C° 0 mm 2 m/s 758 mmHg 70%
    08:00 +28°C° 0 mm 3 m/s 758 mmHg 63%
    09:00 +30°C° 0 mm 4 m/s 758 mmHg 56%
    10:00 +33°C° 0 mm 4 m/s 759 mmHg 49%
    11:00 +34°C° 0 mm 4 m/s 758 mmHg 46%
    12:00 +35°C° 0 mm 4 m/s 758 mmHg 43%
    13:00 +36°C° 0 mm 4 m/s 757 mmHg 40%
    14:00 +35°C° 0 mm 3 m/s 757 mmHg 43%
    15:00 +35°C° 0 mm 3 m/s 756 mmHg 45%
    16:00 +34°C° 0 mm 3 m/s 756 mmHg 48%
    17:00 +33°C° 0 mm 3 m/s 756 mmHg 54%
    18:00 +30°C° 0 mm 3 m/s 757 mmHg 60%
    19:00 +28°C° 0 mm 3 m/s 757 mmHg 66%
    20:00 +28°C° 0 mm 3 m/s 757 mmHg 67%
    21:00 +28°C° 0 mm 3 m/s 758 mmHg 68%
    22:00 +28°C° 0 mm 2 m/s 758 mmHg 69%
    23:00 +27°C° 0 mm 2 m/s 758 mmHg 68%

    Poimâine, 19 Ianuarie, Sâmbătă

    Timp Temperatura Precipitaţii Vânt Presiune Umiditate
    00:00 +27°C° 0 mm 2 m/s 758 mmHg 68%
    01:00 +27°C° 0 mm 1 m/s 758 mmHg 68%
    02:00 +26°C° 0 mm 1 m/s 757 mmHg 69%
    03:00 +26°C° 0 mm 1 m/s 757 mmHg 70%
    04:00 +26°C° 0 mm 1 m/s 757 mmHg 72%
    05:00 +26°C° 0 mm 1 m/s 757 mmHg 73%
    06:00 +26°C° 0 mm 1 m/s 757 mmHg 73%
    07:00 +26°C° 0 mm 1 m/s 758 mmHg 74%
    08:00 +28°C° 0 mm 1 m/s 758 mmHg 65%
    09:00 +30°C° 0 mm 2 m/s 758 mmHg 57%
    10:00 +33°C° 0 mm 3 m/s 759 mmHg 48%
    11:00 +34°C° 0 mm 3 m/s 758 mmHg 46%
    12:00 +35°C° 0 mm 3 m/s 757 mmHg 43%
    13:00 +36°C° 0 mm 3 m/s 757 mmHg 41%
    14:00 +35°C° 0 mm 3 m/s 756 mmHg 44%
    15:00 +35°C° 0 mm 3 m/s 756 mmHg 47%
    16:00 +34°C° 0 mm 4 m/s 755 mmHg 51%
    17:00 +32°C° 0 mm 4 m/s 756 mmHg 57%
    18:00 +29°C° 0 mm 4 m/s 756 mmHg 63%
    19:00 +28°C° 0 mm 4 m/s 757 mmHg 69%
    20:00 +28°C° 0 mm 4 m/s 757 mmHg 70%
    21:00 +28°C° 0 mm 4 m/s 758 mmHg 71%
    22:00 +27°C° 0 mm 4 m/s 758 mmHg 71%
    23:00 +27°C° 0 mm 3 m/s 758 mmHg 71%

    20 Ianuarie, Duminică

    Timp Temperatura Precipitaţii Vânt Presiune Umiditate
    00:00 +27°C° 0 mm 3 m/s 758 mmHg 71%
    01:00 +27°C° 0 mm 3 m/s 758 mmHg 71%
    02:00 +27°C° 0 mm 2 m/s 757 mmHg 71%
    03:00 +26°C° 0 mm 2 m/s 757 mmHg 72%
    04:00 +26°C° 0 mm 2 m/s 757 mmHg 73%
    05:00 +26°C° 0 mm 2 m/s 757 mmHg 72%
    06:00 +26°C° 0 mm 2 m/s 757 mmHg 71%
    07:00 +26°C° 0 mm 2 m/s 758 mmHg 71%
    08:00 +28°C° 0 mm 2 m/s 758 mmHg 63%
    09:00 +30°C° 0 mm 2 m/s 759 mmHg 56%
    10:00 +32°C° 0 mm 2 m/s 759 mmHg 49%
    11:00 +34°C° 0 mm 2 m/s 758 mmHg 46%
    12:00 +35°C° 0 mm 2 m/s 757 mmHg 43%
    13:00 +37°C° 0 mm 2 m/s 756 mmHg 40%
    14:00 +35°C° 0 mm 2 m/s 756 mmHg 43%
    15:00 +34°C° 0 mm 2 m/s 755 mmHg 46%
    16:00 +33°C° 0 mm 3 m/s 755 mmHg 49%
    17:00 +31°C° 0 mm 3 m/s 756 mmHg 55%
    18:00 +29°C° 0 mm 3 m/s 756 mmHg 61%
    19:00 +28°C° 0 mm 3 m/s 757 mmHg 68%
    20:00 +27°C° 0 mm 3 m/s 757 mmHg 70%
    21:00 +27°C° 0 mm 3 m/s 758 mmHg 72%
    22:00 +27°C° 0 mm 3 m/s 758 mmHg 74%
    23:00 +27°C° 0 mm 3 m/s 758 mmHg 75%

    21 Ianuarie, Luni

    Timp Temperatura Precipitaţii Vânt Presiune Umiditate
    00:00 +26°C° 0 mm 3 m/s 758 mmHg 76%
    01:00 +26°C° 0 mm 3 m/s 757 mmHg 77%
    02:00 +26°C° 0 mm 2 m/s 757 mmHg 77%
    03:00 +26°C° 0 mm 2 m/s 757 mmHg 77%
    04:00 +25°C° 0 mm 2 m/s 757 mmHg 77%
    05:00 +25°C° 0 mm 1 m/s 757 mmHg 77%
    06:00 +25°C° 0 mm 1 m/s 758 mmHg 76%
    07:00 +25°C° 0 mm 1 m/s 758 mmHg 75%
    08:00 +28°C° 0 mm 1 m/s 759 mmHg 66%
    09:00 +30°C° 0 mm 2 m/s 759 mmHg 56%
    10:00 +32°C° 0 mm 2 m/s 759 mmHg 46%
    11:00 +34°C° 0 mm 2 m/s 758 mmHg 43%
    12:00 +36°C° 0 mm 2 m/s 758 mmHg 40%
    13:00 +37°C° 0 mm 2 m/s 757 mmHg 37%
    14:00 +37°C° 0 mm 2 m/s 756 mmHg 38%
    15:00 +36°C° 0 mm 2 m/s 756 mmHg 39%
    16:00 +36°C° 0 mm 2 m/s 755 mmHg 41%
    17:00 +34°C° 0 mm 2 m/s 756 mmHg 50%
    18:00 +30°C° 0 mm 2 m/s 756 mmHg 59%
    19:00 +28°C° 0 mm 2 m/s 757 mmHg 68%
    20:00 +28°C° 0 mm 2 m/s 757 mmHg 73%
    21:00 +27°C° 0 mm 2 m/s 758 mmHg 77%
    22:00 +27°C° 0 mm 2 m/s 758 mmHg 81%
    23:00 +27°C° 0 mm 2 m/s 758 mmHg 81%

    22 Ianuarie, Marţi

    Timp Temperatura Precipitaţii Vânt Presiune Umiditate
    00:00 +27°C° 0 mm 2 m/s 758 mmHg 82%
    01:00 +26°C° 0 mm 2 m/s 758 mmHg 82%
    02:00 +26°C° 0 mm 1 m/s 757 mmHg 83%
    03:00 +26°C° 0 mm 1 m/s 757 mmHg 83%
    04:00 +26°C° 0 mm 1 m/s 757 mmHg 84%
    05:00 +26°C° 0 mm 1 m/s 757 mmHg 83%
    06:00 +26°C° 0 mm 1 m/s 758 mmHg 81%
    07:00 +26°C° 0 mm 1 m/s 758 mmHg 80%
    08:00 +28°C° 0 mm 1 m/s 759 mmHg 70%
    09:00 +31°C° 0 mm 1 m/s 759 mmHg 59%
    10:00 +33°C° 0 mm 1 m/s 759 mmHg 48%
    11:00 +34°C° 0 mm 1 m/s 758 mmHg 45%
    12:00 +36°C° 0 mm 1 m/s 758 mmHg 42%
    13:00 +37°C° 0 mm 1 m/s 757 mmHg 38%
    14:00 +35°C° 0 mm 1 m/s 756 mmHg 45%
    15:00 +34°C° 0 mm 2 m/s 756 mmHg 52%
    16:00 +31°C° 0 mm 3 m/s 756 mmHg 58%
    17:00 +30°C° 0 mm 3 m/s 756 mmHg 62%
    18:00 +29°C° 0 mm 3 m/s 757 mmHg 66%
    19:00 +28°C° 0 mm 3 m/s 757 mmHg 70%
    20:00 +28°C° 0 mm 3 m/s 758 mmHg 68%
    21:00 +28°C° 0 mm 3 m/s 758 mmHg 67%
    22:00 +28°C° 0 mm 3 m/s 759 mmHg 65%
    23:00 +28°C° 0 mm 2 m/s 758 mmHg 67%
    Arată mai mult